Location: Москва
(55.7504°N, 37.6175°E)
Time: 14:29:09
(UTC+03:00)

Envisat - Pass Details

Date: 21 September 2021
Orbit: 764 x 766 km, 98.2° (Epoch: 20 October)

Event Time Altitude Azimuth Distance (km) Brightness Sun altitude
Rises 04:23:10 0° 24° (NNE) 3,247 7.1 -15.7°
Reaches altitude 10° 04:26:15 10° 44° (NE) 2,315 6.6 -15.3°
Maximum altitude 04:29:39 18° 86° (E) 1,829 5.9 -14.9°
Drops below altitude 10° 04:33:03 10° 128° (SE) 2,302 5.8 -14.4°
Sets 04:36:05 0° 148° (SSE) 3,223 6.4 -14.0°
